owner,sensor,date,latitude,longitude,air_pressure(mBar),qcFlag 
WAVCIS,ioos:station:WAVCIS:CSI03:1,2009-03-01T00:00:00Z,29.4412,-92.0613,1016.88,11111222 
WAVCIS,ioos:station:WAVCIS:CSI03:1,2009-03-01T01:00:00Z,29.4412,-92.0613,1017.94,11111222 
WAVCIS,ioos:station:WAVCIS:CSI03:1,2009-03-01T02:00:00Z,29.4412,-92.0613,1018.74,11111222 
WAVCIS,ioos:station:WAVCIS:CSI03:1,2009-03-01T03:00:00Z,29.4412,-92.0613,1019.73,11111222 
WAVCIS,ioos:station:WAVCIS:CSI03:1,2009-03-01T04:00:00Z,29.4412,-92.0613,1020.69,11111222 
WAVCIS,ioos:station:WAVCIS:CSI03:1,2009-03-01T05:00:00Z,29.4412,-92.0613,1020.83,11111222 
WAVCIS,ioos:station:WAVCIS:CSI03:1,2009-03-01T06:00:00Z,29.4412,-92.0613,1021.33,11111222 
WAVCIS,ioos:station:WAVCIS:CSI03:1,2009-03-01T07:00:00Z,29.4412,-92.0613,1021.69,11111222 
WAVCIS,ioos:station:WAVCIS:CSI03:1,2009-03-01T08:00:00Z,29.4412,-92.0613,1022.28,11111222 
WAVCIS,ioos:station:WAVCIS:CSI03:1,2009-03-01T09:00:00Z,29.4412,-92.0613,1022.63,11111222 
WAVCIS,ioos:station:WAVCIS:CSI03:1,2009-03-01T10:00:00Z,29.4412,-92.0613,1023.04,11111222 
WAVCIS,ioos:station:WAVCIS:CSI03:1,2009-03-01T11:00:00Z,29.4412,-92.0613,1023.77,11111222 
WAVCIS,ioos:station:WAVCIS:CSI03:1,2009-03-01T12:00:00Z,29.4412,-92.0613,1024.36,11111222 
WAVCIS,ioos:station:WAVCIS:CSI03:1,2009-03-01T13:00:00Z,29.4412,-92.0613,1025.02,11111222 
WAVCIS,ioos:station:WAVCIS:CSI03:1,2009-03-01T14:00:00Z,29.4412,-92.0613,1025.89,11111222 
WAVCIS,ioos:station:WAVCIS:CSI03:1,2009-03-01T15:00:00Z,29.4412,-92.0613,1026.19,11111222 
WAVCIS,ioos:station:WAVCIS:CSI03:1,2009-03-01T16:00:00Z,29.4412,-92.0613,1026.48,11111222 
WAVCIS,ioos:station:WAVCIS:CSI03:1,2009-03-01T17:00:00Z,29.4412,-92.0613,1026.58,11111222 
WAVCIS,ioos:station:WAVCIS:CSI03:1,2009-03-01T18:00:00Z,29.4412,-92.0613,1026.05,11111222 
WAVCIS,ioos:station:WAVCIS:CSI03:1,2009-03-01T19:00:00Z,29.4412,-92.0613,1025.37,11111222 
WAVCIS,ioos:station:WAVCIS:CSI03:1,2009-03-01T20:00:00Z,29.4412,-92.0613,1024.59,11111222 
WAVCIS,ioos:station:WAVCIS:CSI03:1,2009-03-01T21:00:00Z,29.4412,-92.0613,1023.98,11111222 
WAVCIS,ioos:station:WAVCIS:CSI03:1,2009-03-01T22:00:00Z,29.4412,-92.0613,1023.77,11111222 
WAVCIS,ioos:station:WAVCIS:CSI03:1,2009-03-01T23:00:00Z,29.4412,-92.0613,1023.39,11111222 
WAVCIS,ioos:station:WAVCIS:CSI03:1,2009-03-02T00:00:00Z,29.4412,-92.0613,1023.56,11111222 
WAVCIS,ioos:station:WAVCIS:CSI03:1,2009-03-02T01:00:00Z,29.4412,-92.0613,1023.68,11111222 
WAVCIS,ioos:station:WAVCIS:CSI03:1,2009-03-02T02:00:00Z,29.4412,-92.0613,1024.31,11111222 
WAVCIS,ioos:station:WAVCIS:CSI03:1,2009-03-02T03:00:00Z,29.4412,-92.0613,1025.53,11111222 
WAVCIS,ioos:station:WAVCIS:CSI03:1,2009-03-02T04:00:00Z,29.4412,-92.0613,1025.74,11111222 
WAVCIS,ioos:station:WAVCIS:CSI03:1,2009-03-02T05:00:00Z,29.4412,-92.0613,1025.36,11111222 
WAVCIS,ioos:station:WAVCIS:CSI03:1,2009-03-02T06:00:00Z,29.4412,-92.0613,1025.34,11111222 
WAVCIS,ioos:station:WAVCIS:CSI03:1,2009-03-02T07:00:00Z,29.4412,-92.0613,1025.49,11111222 
WAVCIS,ioos:station:WAVCIS:CSI03:1,2009-03-02T08:00:00Z,29.4412,-92.0613,1025.0,11111222 
WAVCIS,ioos:station:WAVCIS:CSI03:1,2009-03-02T09:00:00Z,29.4412,-92.0613,1024.64,11111222 
WAVCIS,ioos:station:WAVCIS:CSI03:1,2009-03-02T10:00:00Z,29.4412,-92.0613,1024.82,11111222 
WAVCIS,ioos:station:WAVCIS:CSI03:1,2009-03-02T11:00:00Z,29.4412,-92.0613,1024.53,11111222 
WAVCIS,ioos:station:WAVCIS:CSI03:1,2009-03-02T12:00:00Z,29.4412,-92.0613,1024.86,11111222 
WAVCIS,ioos:station:WAVCIS:CSI03:1,2009-03-02T13:00:00Z,29.4412,-92.0613,1025.45,11111222 
WAVCIS,ioos:station:WAVCIS:CSI03:1,2009-03-02T14:00:00Z,29.4412,-92.0613,1025.42,11111222 
WAVCIS,ioos:station:WAVCIS:CSI03:1,2009-03-02T15:00:00Z,29.4412,-92.0613,1025.99,11111222 
WAVCIS,ioos:station:WAVCIS:CSI03:1,2009-03-02T16:00:00Z,29.4412,-92.0613,1025.99,11111222 
WAVCIS,ioos:station:WAVCIS:CSI03:1,2009-03-02T17:00:00Z,29.4412,-92.0613,1026.03,11111222 
WAVCIS,ioos:station:WAVCIS:CSI03:1,2009-03-02T18:00:00Z,29.4412,-92.0613,1025.38,11111222 
WAVCIS,ioos:station:WAVCIS:CSI03:1,2009-03-02T19:00:00Z,29.4412,-92.0613,1024.53,11111222 
WAVCIS,ioos:station:WAVCIS:CSI03:1,2009-03-02T20:00:00Z,29.4412,-92.0613,1023.62,11111222 
WAVCIS,ioos:station:WAVCIS:CSI03:1,2009-03-02T21:00:00Z,29.4412,-92.0613,1023.04,11111222 
WAVCIS,ioos:station:WAVCIS:CSI03:1,2009-03-02T22:00:00Z,29.4412,-92.0613,1022.58,11111222 
WAVCIS,ioos:station:WAVCIS:CSI03:1,2009-03-02T23:00:00Z,29.4412,-92.0613,1022.49,11111222 
WAVCIS,ioos:station:WAVCIS:CSI03:1,2009-03-03T00:00:00Z,29.4412,-92.0613,1022.57,11111222 
WAVCIS,ioos:station:WAVCIS:CSI03:1,2009-03-03T01:00:00Z,29.4412,-92.0613,1022.86,11111222 
WAVCIS,ioos:station:WAVCIS:CSI03:1,2009-03-03T02:00:00Z,29.4412,-92.0613,1023.17,11111222 
WAVCIS,ioos:station:WAVCIS:CSI03:1,2009-03-03T03:00:00Z,29.4412,-92.0613,1023.46,11111222 
WAVCIS,ioos:station:WAVCIS:CSI03:1,2009-03-03T04:00:00Z,29.4412,-92.0613,1023.46,11111222 
WAVCIS,ioos:station:WAVCIS:CSI03:1,2009-03-03T05:00:00Z,29.4412,-92.0613,1023.5,11111222 
WAVCIS,ioos:station:WAVCIS:CSI03:1,2009-03-03T06:00:00Z,29.4412,-92.0613,1023.57,11111222 
WAVCIS,ioos:station:WAVCIS:CSI03:1,2009-03-03T07:00:00Z,29.4412,-92.0613,1023.74,11111222 
WAVCIS,ioos:station:WAVCIS:CSI03:1,2009-03-03T08:00:00Z,29.4412,-92.0613,1023.58,11111222 
WAVCIS,ioos:station:WAVCIS:CSI03:1,2009-03-03T09:00:00Z,29.4412,-92.0613,1023.5,11111222 
WAVCIS,ioos:station:WAVCIS:CSI03:1,2009-03-03T10:00:00Z,29.4412,-92.0613,1023.33,11111222 
WAVCIS,ioos:station:WAVCIS:CSI03:1,2009-03-03T11:00:00Z,29.4412,-92.0613,1024.0,11111222 
WAVCIS,ioos:station:WAVCIS:CSI03:1,2009-03-03T12:00:00Z,29.4412,-92.0613,1024.5,11111222 
WAVCIS,ioos:station:WAVCIS:CSI03:1,2009-03-03T13:00:00Z,29.4412,-92.0613,1025.06,11111222 
WAVCIS,ioos:station:WAVCIS:CSI03:1,2009-03-03T14:00:00Z,29.4412,-92.0613,1025.44,11111222 
WAVCIS,ioos:station:WAVCIS:CSI03:1,2009-03-03T15:00:00Z,29.4412,-92.0613,1025.75,11111222 
WAVCIS,ioos:station:WAVCIS:CSI03:1,2009-03-03T16:00:00Z,29.4412,-92.0613,1026.1,11111222 
WAVCIS,ioos:station:WAVCIS:CSI03:1,2009-03-03T17:00:00Z,29.4412,-92.0613,1025.78,11111222 
WAVCIS,ioos:station:WAVCIS:CSI03:1,2009-03-03T18:00:00Z,29.4412,-92.0613,1025.36,11111222 
WAVCIS,ioos:station:WAVCIS:CSI03:1,2009-03-03T19:00:00Z,29.4412,-92.0613,1024.81,11111222 
WAVCIS,ioos:station:WAVCIS:CSI03:1,2009-03-03T20:00:00Z,29.4412,-92.0613,1024.31,11111222 
WAVCIS,ioos:station:WAVCIS:CSI03:1,2009-03-03T21:00:00Z,29.4412,-92.0613,1024.04,11111222 
WAVCIS,ioos:station:WAVCIS:CSI03:1,2009-03-03T22:00:00Z,29.4412,-92.0613,1023.96,11111222 
WAVCIS,ioos:station:WAVCIS:CSI03:1,2009-03-03T23:00:00Z,29.4412,-92.0613,1023.65,11111222 
WAVCIS,ioos:station:WAVCIS:CSI03:1,2009-03-04T00:00:00Z,29.4412,-92.0613,1023.38,11111222 
WAVCIS,ioos:station:WAVCIS:CSI03:1,2009-03-04T01:00:00Z,29.4412,-92.0613,1023.02,11111222 
WAVCIS,ioos:station:WAVCIS:CSI03:1,2009-03-04T02:00:00Z,29.4412,-92.0613,1023.44,11111222 
WAVCIS,ioos:station:WAVCIS:CSI03:1,2009-03-04T03:00:00Z,29.4412,-92.0613,1023.43,11111222 
WAVCIS,ioos:station:WAVCIS:CSI03:1,2009-03-04T04:00:00Z,29.4412,-92.0613,1023.67,11111222 
WAVCIS,ioos:station:WAVCIS:CSI03:1,2009-03-04T05:00:00Z,29.4412,-92.0613,1023.13,11111222 
WAVCIS,ioos:station:WAVCIS:CSI03:1,2009-03-04T06:00:00Z,29.4412,-92.0613,1022.76,11111222 
WAVCIS,ioos:station:WAVCIS:CSI03:1,2009-03-04T07:00:00Z,29.4412,-92.0613,1022.23,11111222 
WAVCIS,ioos:station:WAVCIS:CSI03:1,2009-03-04T08:00:00Z,29.4412,-92.0613,1022.23,11111222 
WAVCIS,ioos:station:WAVCIS:CSI03:1,2009-03-04T09:00:00Z,29.4412,-92.0613,1021.72,11111222 
WAVCIS,ioos:station:WAVCIS:CSI03:1,2009-03-04T10:00:00Z,29.4412,-92.0613,1021.72,11111222 
WAVCIS,ioos:station:WAVCIS:CSI03:1,2009-03-04T11:00:00Z,29.4412,-92.0613,1022.07,11111222 
WAVCIS,ioos:station:WAVCIS:CSI03:1,2009-03-04T12:00:00Z,29.4412,-92.0613,1022.36,11111222 
WAVCIS,ioos:station:WAVCIS:CSI03:1,2009-03-04T13:00:00Z,29.4412,-92.0613,1022.62,11111222 
WAVCIS,ioos:station:WAVCIS:CSI03:1,2009-03-04T14:00:00Z,29.4412,-92.0613,1023.11,11111222 
WAVCIS,ioos:station:WAVCIS:CSI03:1,2009-03-04T15:00:00Z,29.4412,-92.0613,1023.57,11111222 
WAVCIS,ioos:station:WAVCIS:CSI03:1,2009-03-04T16:00:00Z,29.4412,-92.0613,1023.74,11111222 
WAVCIS,ioos:station:WAVCIS:CSI03:1,2009-03-04T17:00:00Z,29.4412,-92.0613,1023.76,11111222 
WAVCIS,ioos:station:WAVCIS:CSI03:1,2009-03-04T18:00:00Z,29.4412,-92.0613,1023.43,11111222 
WAVCIS,ioos:station:WAVCIS:CSI03:1,2009-03-04T19:00:00Z,29.4412,-92.0613,1022.83,11111222 
WAVCIS,ioos:station:WAVCIS:CSI03:1,2009-03-04T20:00:00Z,29.4412,-92.0613,1022.14,11111222 
WAVCIS,ioos:station:WAVCIS:CSI03:1,2009-03-04T21:00:00Z,29.4412,-92.0613,1021.58,11111222 
WAVCIS,ioos:station:WAVCIS:CSI03:1,2009-03-04T22:00:00Z,29.4412,-92.0613,1021.44,11111222 
WAVCIS,ioos:station:WAVCIS:CSI03:1,2009-03-04T23:00:00Z,29.4412,-92.0613,1021.06,11111222 
WAVCIS,ioos:station:WAVCIS:CSI03:1,2009-03-05T00:00:00Z,29.4412,-92.0613,1021.34,11111222 
WAVCIS,ioos:station:WAVCIS:CSI03:1,2009-03-05T01:00:00Z,29.4412,-92.0613,1021.14,11111222 
WAVCIS,ioos:station:WAVCIS:CSI03:1,2009-03-05T02:00:00Z,29.4412,-92.0613,1021.66,11111222 
WAVCIS,ioos:station:WAVCIS:CSI03:1,2009-03-05T03:00:00Z,29.4412,-92.0613,1021.78,11111222 
WAVCIS,ioos:station:WAVCIS:CSI03:1,2009-03-05T04:00:00Z,29.4412,-92.0613,1021.63,11111222 
WAVCIS,ioos:station:WAVCIS:CSI03:1,2009-03-05T05:00:00Z,29.4412,-92.0613,1021.56,11111222 
WAVCIS,ioos:station:WAVCIS:CSI03:1,2009-03-05T06:00:00Z,29.4412,-92.0613,1021.24,11111222 
WAVCIS,ioos:station:WAVCIS:CSI03:1,2009-03-05T07:00:00Z,29.4412,-92.0613,1021.06,11111222 
WAVCIS,ioos:station:WAVCIS:CSI03:1,2009-03-05T08:00:00Z,29.4412,-92.0613,1020.82,11111222 
WAVCIS,ioos:station:WAVCIS:CSI03:1,2009-03-05T09:00:00Z,29.4412,-92.0613,1020.19,11111222 
WAVCIS,ioos:station:WAVCIS:CSI03:1,2009-03-05T10:00:00Z,29.4412,-92.0613,1020.44,11111222 
WAVCIS,ioos:station:WAVCIS:CSI03:1,2009-03-05T11:00:00Z,29.4412,-92.0613,1020.81,11111222 
WAVCIS,ioos:station:WAVCIS:CSI03:1,2009-03-05T12:00:00Z,29.4412,-92.0613,1021.43,11111222 
WAVCIS,ioos:station:WAVCIS:CSI03:1,2009-03-05T13:00:00Z,29.4412,-92.0613,1021.8,11111222 
WAVCIS,ioos:station:WAVCIS:CSI03:1,2009-03-05T14:00:00Z,29.4412,-92.0613,1022.41,11111222 
WAVCIS,ioos:station:WAVCIS:CSI03:1,2009-03-05T15:00:00Z,29.4412,-92.0613,1022.94,11111222 
WAVCIS,ioos:station:WAVCIS:CSI03:1,2009-03-05T16:00:00Z,29.4412,-92.0613,1023.32,11111222 
WAVCIS,ioos:station:WAVCIS:CSI03:1,2009-03-05T17:00:00Z,29.4412,-92.0613,1023.7,11111222 
WAVCIS,ioos:station:WAVCIS:CSI03:1,2009-03-05T18:00:00Z,29.4412,-92.0613,1023.32,11111222 
WAVCIS,ioos:station:WAVCIS:CSI03:1,2009-03-05T19:00:00Z,29.4412,-92.0613,1022.83,11111222 
WAVCIS,ioos:station:WAVCIS:CSI03:1,2009-03-05T20:00:00Z,29.4412,-92.0613,1022.22,11111222 
WAVCIS,ioos:station:WAVCIS:CSI03:1,2009-03-05T21:00:00Z,29.4412,-92.0613,1021.93,11111222 
WAVCIS,ioos:station:WAVCIS:CSI03:1,2009-03-05T22:00:00Z,29.4412,-92.0613,1021.49,11111222 
WAVCIS,ioos:station:WAVCIS:CSI03:1,2009-03-05T23:00:00Z,29.4412,-92.0613,1021.22,11111222 
WAVCIS,ioos:station:WAVCIS:CSI03:1,2009-03-06T00:00:00Z,29.4412,-92.0613,1021.14,11111222 
WAVCIS,ioos:station:WAVCIS:CSI03:1,2009-03-06T01:00:00Z,29.4412,-92.0613,1021.25,11111222 
WAVCIS,ioos:station:WAVCIS:CSI03:1,2009-03-06T02:00:00Z,29.4412,-92.0613,1021.7,11111222 
WAVCIS,ioos:station:WAVCIS:CSI03:1,2009-03-06T03:00:00Z,29.4412,-92.0613,1022.19,11111222 
WAVCIS,ioos:station:WAVCIS:CSI03:1,2009-03-06T04:00:00Z,29.4412,-92.0613,1022.81,11111222 
WAVCIS,ioos:station:WAVCIS:CSI03:1,2009-03-06T05:00:00Z,29.4412,-92.0613,1022.69,11111222 
WAVCIS,ioos:station:WAVCIS:CSI03:1,2009-03-06T06:00:00Z,29.4412,-92.0613,1022.54,11111222 
WAVCIS,ioos:station:WAVCIS:CSI03:1,2009-03-06T07:00:00Z,29.4412,-92.0613,1022.42,11111222 
WAVCIS,ioos:station:WAVCIS:CSI03:1,2009-03-06T08:00:00Z,29.4412,-92.0613,1022.09,11111222 
WAVCIS,ioos:station:WAVCIS:CSI03:1,2009-03-06T09:00:00Z,29.4412,-92.0613,1021.53,11111222 
WAVCIS,ioos:station:WAVCIS:CSI03:1,2009-03-06T10:00:00Z,29.4412,-92.0613,1021.34,11111222 
WAVCIS,ioos:station:WAVCIS:CSI03:1,2009-03-06T11:00:00Z,29.4412,-92.0613,1021.42,11111222 
WAVCIS,ioos:station:WAVCIS:CSI03:1,2009-03-06T12:00:00Z,29.4412,-92.0613,1021.7,11111222 
WAVCIS,ioos:station:WAVCIS:CSI03:1,2009-03-06T13:00:00Z,29.4412,-92.0613,1022.03,11111222 
WAVCIS,ioos:station:WAVCIS:CSI03:1,2009-03-06T14:00:00Z,29.4412,-92.0613,1022.36,11111222 
WAVCIS,ioos:station:WAVCIS:CSI03:1,2009-03-06T15:00:00Z,29.4412,-92.0613,1022.77,11111222 
WAVCIS,ioos:station:WAVCIS:CSI03:1,2009-03-06T16:00:00Z,29.4412,-92.0613,1023.04,11111222 
WAVCIS,ioos:station:WAVCIS:CSI03:1,2009-03-06T17:00:00Z,29.4412,-92.0613,1023.26,11111222 
WAVCIS,ioos:station:WAVCIS:CSI03:1,2009-03-06T18:00:00Z,29.4412,-92.0613,1022.86,11111222 
WAVCIS,ioos:station:WAVCIS:CSI03:1,2009-03-06T19:00:00Z,29.4412,-92.0613,1022.34,11111222 
WAVCIS,ioos:station:WAVCIS:CSI03:1,2009-03-06T20:00:00Z,29.4412,-92.0613,1021.92,11111222 
WAVCIS,ioos:station:WAVCIS:CSI03:1,2009-03-06T21:00:00Z,29.4412,-92.0613,1021.37,11111222 
WAVCIS,ioos:station:WAVCIS:CSI03:1,2009-03-06T22:00:00Z,29.4412,-92.0613,1021.01,11111222 
WAVCIS,ioos:station:WAVCIS:CSI03:1,2009-03-06T23:00:00Z,29.4412,-92.0613,1020.55,11111222 
WAVCIS,ioos:station:WAVCIS:CSI03:1,2009-03-07T00:00:00Z,29.4412,-92.0613,1020.13,11111222 
WAVCIS,ioos:station:WAVCIS:CSI03:1,2009-03-07T01:00:00Z,29.4412,-92.0613,1020.34,11111222 
WAVCIS,ioos:station:WAVCIS:CSI03:1,2009-03-07T02:00:00Z,29.4412,-92.0613,1020.48,11111222 
WAVCIS,ioos:station:WAVCIS:CSI03:1,2009-03-07T03:00:00Z,29.4412,-92.0613,1020.7,11111222 
WAVCIS,ioos:station:WAVCIS:CSI03:1,2009-03-07T04:00:00Z,29.4412,-92.0613,1020.82,11111222 
WAVCIS,ioos:station:WAVCIS:CSI03:1,2009-03-07T05:00:00Z,29.4412,-92.0613,1020.73,11111222 
WAVCIS,ioos:station:WAVCIS:CSI03:1,2009-03-07T06:00:00Z,29.4412,-92.0613,1020.39,11111222 
WAVCIS,ioos:station:WAVCIS:CSI03:1,2009-03-07T07:00:00Z,29.4412,-92.0613,1020.09,11111222 
WAVCIS,ioos:station:WAVCIS:CSI03:1,2009-03-07T08:00:00Z,29.4412,-92.0613,1019.62,11111222 
WAVCIS,ioos:station:WAVCIS:CSI03:1,2009-03-07T09:00:00Z,29.4412,-92.0613,1019.2,11111222 
WAVCIS,ioos:station:WAVCIS:CSI03:1,2009-03-07T10:00:00Z,29.4412,-92.0613,1018.98,11111222 
WAVCIS,ioos:station:WAVCIS:CSI03:1,2009-03-07T11:00:00Z,29.4412,-92.0613,1018.63,11111222 
WAVCIS,ioos:station:WAVCIS:CSI03:1,2009-03-07T12:00:00Z,29.4412,-92.0613,1018.13,11111222 
WAVCIS,ioos:station:WAVCIS:CSI03:1,2009-03-07T13:00:00Z,29.4412,-92.0613,1018.54,11111222 
WAVCIS,ioos:station:WAVCIS:CSI03:1,2009-03-07T14:00:00Z,29.4412,-92.0613,1019.33,11111222 
WAVCIS,ioos:station:WAVCIS:CSI03:1,2009-03-07T15:00:00Z,29.4412,-92.0613,1019.53,11111222 
WAVCIS,ioos:station:WAVCIS:CSI03:1,2009-03-07T16:00:00Z,29.4412,-92.0613,1020.03,11111222 
WAVCIS,ioos:station:WAVCIS:CSI03:1,2009-03-07T17:00:00Z,29.4412,-92.0613,1019.94,11111222 
WAVCIS,ioos:station:WAVCIS:CSI03:1,2009-03-07T18:00:00Z,29.4412,-92.0613,1019.49,11111222 
WAVCIS,ioos:station:WAVCIS:CSI03:1,2009-03-07T19:00:00Z,29.4412,-92.0613,1019.1,11111222 
WAVCIS,ioos:station:WAVCIS:CSI03:1,2009-03-07T20:00:00Z,29.4412,-92.0613,1018.28,11111222 
WAVCIS,ioos:station:WAVCIS:CSI03:1,2009-03-07T21:00:00Z,29.4412,-92.0613,1017.81,11111222 
WAVCIS,ioos:station:WAVCIS:CSI03:1,2009-03-07T22:00:00Z,29.4412,-92.0613,1017.32,11111222 
WAVCIS,ioos:station:WAVCIS:CSI03:1,2009-03-07T23:00:00Z,29.4412,-92.0613,1016.99,11111222 
WAVCIS,ioos:station:WAVCIS:CSI03:1,2009-03-08T00:00:00Z,29.4412,-92.0613,1016.78,11111222 
WAVCIS,ioos:station:WAVCIS:CSI03:1,2009-03-08T01:00:00Z,29.4412,-92.0613,1016.65,11111222 
WAVCIS,ioos:station:WAVCIS:CSI03:1,2009-03-08T02:00:00Z,29.4412,-92.0613,1017.09,11111222 
WAVCIS,ioos:station:WAVCIS:CSI03:1,2009-03-08T03:00:00Z,29.4412,-92.0613,1017.14,11111222 
WAVCIS,ioos:station:WAVCIS:CSI03:1,2009-03-08T04:00:00Z,29.4412,-92.0613,1017.26,11111222 
WAVCIS,ioos:station:WAVCIS:CSI03:1,2009-03-08T05:00:00Z,29.4412,-92.0613,1016.58,11111222 
WAVCIS,ioos:station:WAVCIS:CSI03:1,2009-03-08T06:00:00Z,29.4412,-92.0613,1016.38,11111222 
WAVCIS,ioos:station:WAVCIS:CSI03:1,2009-03-08T07:00:00Z,29.4412,-92.0613,1016.02,11111222 
WAVCIS,ioos:station:WAVCIS:CSI03:1,2009-03-08T08:00:00Z,29.4412,-92.0613,1015.06,11111222 
WAVCIS,ioos:station:WAVCIS:CSI03:1,2009-03-08T09:00:00Z,29.4412,-92.0613,1014.75,11111222 
WAVCIS,ioos:station:WAVCIS:CSI03:1,2009-03-08T10:00:00Z,29.4412,-92.0613,1015.1,11111222 
WAVCIS,ioos:station:WAVCIS:CSI03:1,2009-03-08T11:00:00Z,29.4412,-92.0613,1015.71,11111222 
WAVCIS,ioos:station:WAVCIS:CSI03:1,2009-03-08T12:00:00Z,29.4412,-92.0613,1016.36,11111222 
WAVCIS,ioos:station:WAVCIS:CSI03:1,2009-03-08T13:00:00Z,29.4412,-92.0613,1016.6,11111222 
WAVCIS,ioos:station:WAVCIS:CSI03:1,2009-03-08T14:00:00Z,29.4412,-92.0613,1017.24,11111222 
WAVCIS,ioos:station:WAVCIS:CSI03:1,2009-03-08T15:00:00Z,29.4412,-92.0613,1017.73,11111222 
WAVCIS,ioos:station:WAVCIS:CSI03:1,2009-03-08T16:00:00Z,29.4412,-92.0613,1018.29,11111222 
WAVCIS,ioos:station:WAVCIS:CSI03:1,2009-03-08T17:00:00Z,29.4412,-92.0613,1018.87,11111222 
WAVCIS,ioos:station:WAVCIS:CSI03:1,2009-03-08T18:00:00Z,29.4412,-92.0613,1018.53,11111222 
WAVCIS,ioos:station:WAVCIS:CSI03:1,2009-03-08T19:00:00Z,29.4412,-92.0613,1017.88,11111222 
WAVCIS,ioos:station:WAVCIS:CSI03:1,2009-03-08T20:00:00Z,29.4412,-92.0613,1017.1,11111222 
WAVCIS,ioos:station:WAVCIS:CSI03:1,2009-03-08T21:00:00Z,29.4412,-92.0613,1016.46,11111222 
WAVCIS,ioos:station:WAVCIS:CSI03:1,2009-03-08T22:00:00Z,29.4412,-92.0613,1016.49,11111222 
WAVCIS,ioos:station:WAVCIS:CSI03:1,2009-03-08T23:00:00Z,29.4412,-92.0613,1016.22,11111222 
WAVCIS,ioos:station:WAVCIS:CSI03:1,2009-03-09T00:00:00Z,29.4412,-92.0613,1016.38,11111222 
WAVCIS,ioos:station:WAVCIS:CSI03:1,2009-03-09T01:00:00Z,29.4412,-92.0613,1016.88,11111222 
WAVCIS,ioos:station:WAVCIS:CSI03:1,2009-03-09T02:00:00Z,29.4412,-92.0613,1016.82,11111222 
WAVCIS,ioos:station:WAVCIS:CSI03:1,2009-03-09T03:00:00Z,29.4412,-92.0613,1017.33,11111222 
WAVCIS,ioos:station:WAVCIS:CSI03:1,2009-03-09T04:00:00Z,29.4412,-92.0613,1017.56,11111222 
WAVCIS,ioos:station:WAVCIS:CSI03:1,2009-03-09T05:00:00Z,29.4412,-92.0613,1017.45,11111222 
WAVCIS,ioos:station:WAVCIS:CSI03:1,2009-03-09T06:00:00Z,29.4412,-92.0613,1017.27,11111222 
WAVCIS,ioos:station:WAVCIS:CSI03:1,2009-03-09T07:00:00Z,29.4412,-92.0613,1017.22,11111222 
WAVCIS,ioos:station:WAVCIS:CSI03:1,2009-03-09T08:00:00Z,29.4412,-92.0613,1016.93,11111222 
WAVCIS,ioos:station:WAVCIS:CSI03:1,2009-03-09T09:00:00Z,29.4412,-92.0613,1016.45,11111222 
WAVCIS,ioos:station:WAVCIS:CSI03:1,2009-03-09T10:00:00Z,29.4412,-92.0613,1016.41,11111222 
WAVCIS,ioos:station:WAVCIS:CSI03:1,2009-03-09T11:00:00Z,29.4412,-92.0613,1016.96,11111222 
WAVCIS,ioos:station:WAVCIS:CSI03:1,2009-03-09T12:00:00Z,29.4412,-92.0613,1017.53,11111222 
WAVCIS,ioos:station:WAVCIS:CSI03:1,2009-03-09T13:00:00Z,29.4412,-92.0613,1018.17,11111222 
WAVCIS,ioos:station:WAVCIS:CSI03:1,2009-03-09T14:00:00Z,29.4412,-92.0613,1018.74,11111222 
WAVCIS,ioos:station:WAVCIS:CSI03:1,2009-03-09T15:00:00Z,29.4412,-92.0613,1019.33,11111222 
WAVCIS,ioos:station:WAVCIS:CSI03:1,2009-03-09T16:00:00Z,29.4412,-92.0613,1019.62,11111222 
WAVCIS,ioos:station:WAVCIS:CSI03:1,2009-03-09T17:00:00Z,29.4412,-92.0613,1019.64,11111222 
WAVCIS,ioos:station:WAVCIS:CSI03:1,2009-03-09T18:00:00Z,29.4412,-92.0613,1019.38,11111222 
WAVCIS,ioos:station:WAVCIS:CSI03:1,2009-03-09T20:00:00Z,29.4412,-92.0613,1017.88,11111222 
WAVCIS,ioos:station:WAVCIS:CSI03:1,2009-03-09T21:00:00Z,29.4412,-92.0613,1017.31,11111222 
WAVCIS,ioos:station:WAVCIS:CSI03:1,2009-03-09T22:00:00Z,29.4412,-92.0613,1016.6,11111222 
WAVCIS,ioos:station:WAVCIS:CSI03:1,2009-03-09T23:00:00Z,29.4412,-92.0613,1016.6,11111222 
WAVCIS,ioos:station:WAVCIS:CSI03:1,2009-03-10T00:00:00Z,29.4412,-92.0613,1016.63,11111222 
WAVCIS,ioos:station:WAVCIS:CSI03:1,2009-03-10T01:00:00Z,29.4412,-92.0613,1016.92,11111222 
WAVCIS,ioos:station:WAVCIS:CSI03:1,2009-03-10T02:00:00Z,29.4412,-92.0613,1017.02,11111222 
WAVCIS,ioos:station:WAVCIS:CSI03:1,2009-03-10T03:00:00Z,29.4412,-92.0613,1017.48,11111222 
WAVCIS,ioos:station:WAVCIS:CSI03:1,2009-03-10T04:00:00Z,29.4412,-92.0613,1017.16,11111222 
WAVCIS,ioos:station:WAVCIS:CSI03:1,2009-03-10T05:00:00Z,29.4412,-92.0613,1016.99,11111222 
WAVCIS,ioos:station:WAVCIS:CSI03:1,2009-03-10T06:00:00Z,29.4412,-92.0613,1016.43,11111222 
WAVCIS,ioos:station:WAVCIS:CSI03:1,2009-03-10T07:00:00Z,29.4412,-92.0613,1015.92,11111222 
WAVCIS,ioos:station:WAVCIS:CSI03:1,2009-03-10T08:00:00Z,29.4412,-92.0613,1015.3,11111222 
WAVCIS,ioos:station:WAVCIS:CSI03:1,2009-03-10T09:00:00Z,29.4412,-92.0613,1014.72,11111222 
WAVCIS,ioos:station:WAVCIS:CSI03:1,2009-03-10T10:00:00Z,29.4412,-92.0613,1014.57,11111222 
WAVCIS,ioos:station:WAVCIS:CSI03:1,2009-03-10T11:00:00Z,29.4412,-92.0613,1014.75,11111222 
WAVCIS,ioos:station:WAVCIS:CSI03:1,2009-03-10T12:00:00Z,29.4412,-92.0613,1015.07,11111222 
WAVCIS,ioos:station:WAVCIS:CSI03:1,2009-03-10T13:00:00Z,29.4412,-92.0613,1015.49,11111222 
WAVCIS,ioos:station:WAVCIS:CSI03:1,2009-03-10T14:00:00Z,29.4412,-92.0613,1015.99,11111222 
WAVCIS,ioos:station:WAVCIS:CSI03:1,2009-03-10T15:00:00Z,29.4412,-92.0613,1016.72,11111222 
WAVCIS,ioos:station:WAVCIS:CSI03:1,2009-03-10T16:00:00Z,29.4412,-92.0613,1017.04,11111222 
WAVCIS,ioos:station:WAVCIS:CSI03:1,2009-03-10T17:00:00Z,29.4412,-92.0613,1017.4,11111222 
WAVCIS,ioos:station:WAVCIS:CSI03:1,2009-03-10T18:00:00Z,29.4412,-92.0613,1017.32,11111222 
WAVCIS,ioos:station:WAVCIS:CSI03:1,2009-03-10T19:00:00Z,29.4412,-92.0613,1016.67,11111222 
WAVCIS,ioos:station:WAVCIS:CSI03:1,2009-03-10T20:00:00Z,29.4412,-92.0613,1016.04,11111222 
WAVCIS,ioos:station:WAVCIS:CSI03:1,2009-03-10T21:00:00Z,29.4412,-92.0613,1015.7,11111222 
WAVCIS,ioos:station:WAVCIS:CSI03:1,2009-03-10T22:00:00Z,29.4412,-92.0613,1015.32,11111222 
WAVCIS,ioos:station:WAVCIS:CSI03:1,2009-03-10T23:00:00Z,29.4412,-92.0613,1015.08,11111222 
WAVCIS,ioos:station:WAVCIS:CSI03:1,2009-03-11T00:00:00Z,29.4412,-92.0613,1015.44,11111222 
WAVCIS,ioos:station:WAVCIS:CSI03:1,2009-03-11T01:00:00Z,29.4412,-92.0613,1015.89,11111222 
WAVCIS,ioos:station:WAVCIS:CSI03:1,2009-03-11T02:00:00Z,29.4412,-92.0613,1016.31,11111222 
WAVCIS,ioos:station:WAVCIS:CSI03:1,2009-03-11T03:00:00Z,29.4412,-92.0613,1016.51,11111222 
WAVCIS,ioos:station:WAVCIS:CSI03:1,2009-03-11T04:00:00Z,29.4412,-92.0613,1016.73,11111222 
WAVCIS,ioos:station:WAVCIS:CSI03:1,2009-03-11T05:00:00Z,29.4412,-92.0613,1016.51,11111222 
WAVCIS,ioos:station:WAVCIS:CSI03:1,2009-03-11T06:00:00Z,29.4412,-92.0613,1016.65,11111222 
WAVCIS,ioos:station:WAVCIS:CSI03:1,2009-03-11T07:00:00Z,29.4412,-92.0613,1016.65,11111222 
WAVCIS,ioos:station:WAVCIS:CSI03:1,2009-03-11T08:00:00Z,29.4412,-92.0613,1016.54,11111222 
WAVCIS,ioos:station:WAVCIS:CSI03:1,2009-03-11T09:00:00Z,29.4412,-92.0613,1016.04,11111222 
WAVCIS,ioos:station:WAVCIS:CSI03:1,2009-03-11T10:00:00Z,29.4412,-92.0613,1015.74,11111222 
WAVCIS,ioos:station:WAVCIS:CSI03:1,2009-03-11T11:00:00Z,29.4412,-92.0613,1016.21,11111222 
WAVCIS,ioos:station:WAVCIS:CSI03:1,2009-03-11T12:00:00Z,29.4412,-92.0613,1017.07,11111222 
WAVCIS,ioos:station:WAVCIS:CSI03:1,2009-03-11T13:00:00Z,29.4412,-92.0613,1017.88,11111222 
WAVCIS,ioos:station:WAVCIS:CSI03:1,2009-03-11T14:00:00Z,29.4412,-92.0613,1018.67,11111222 
WAVCIS,ioos:station:WAVCIS:CSI03:1,2009-03-11T15:00:00Z,29.4412,-92.0613,1019.4,11111222 
WAVCIS,ioos:station:WAVCIS:CSI03:1,2009-03-11T16:00:00Z,29.4412,-92.0613,1019.93,11111222 
WAVCIS,ioos:station:WAVCIS:CSI03:1,2009-03-11T17:00:00Z,29.4412,-92.0613,1019.91,11111222 
WAVCIS,ioos:station:WAVCIS:CSI03:1,2009-03-11T18:00:00Z,29.4412,-92.0613,1019.32,11111222 
WAVCIS,ioos:station:WAVCIS:CSI03:1,2009-03-11T19:00:00Z,29.4412,-92.0613,1018.86,11111222 
WAVCIS,ioos:station:WAVCIS:CSI03:1,2009-03-11T20:00:00Z,29.4412,-92.0613,1017.98,11111222 
WAVCIS,ioos:station:WAVCIS:CSI03:1,2009-03-11T21:00:00Z,29.4412,-92.0613,1017.19,11111222 
WAVCIS,ioos:station:WAVCIS:CSI03:1,2009-03-11T22:00:00Z,29.4412,-92.0613,1016.81,11111222 
WAVCIS,ioos:station:WAVCIS:CSI03:1,2009-03-11T23:00:00Z,29.4412,-92.0613,1017.24,11111222 